| time (UTC) | temp C | wind direction | speed KPH | gust KPH | rain 1hr cm | rain 24hr cm | rain mn cm | humidity % | barometer mb |
| 20260503193004 | 29 | 77 | 3.2 | 24.1 | 0.00 | 0.00 | 0.00 | 35 | 1014.4 |
| 20260503191504 | 28 | 50 | 1.6 | 22.5 | 0.00 | 0.00 | 0.00 | 35 | 1014.7 |
| 20260503184504 | 27 | 51 | 1.6 | 20.9 | 0.00 | 0.00 | 0.00 | 43 | 1015.1 |
| 20260503183004 | 26 | 28 | 0.0 | 8.0 | 0.00 | 0.00 | 0.00 | 46 | 1015.4 |
| 20260503180005 | 23 | 98 | 0.0 | 0.0 | 0.00 | 0.00 | 0.00 | 50 | 1015.6 |
| 20260503174504 | 21 | 135 | 0.0 | 1.6 | 0.00 | 0.00 | 0.00 | 58 | 1015.9 |
| 20260503171504 | 21 | 142 | 0.0 | 0.0 | 0.00 | 0.00 | 0.00 | 58 | 1016.2 |
| 20260503081504 | 14 | 58 | 0.0 | 0.0 | 0.00 | 0.03 | 0.00 | 89 | 1017.2 |
| 20260503071504 | 15 | 59 | 0.0 | 0.0 | 0.00 | 0.03 | 0.00 | 88 | 1017.2 |
| 20260503054503 | 16 | 20 | 1.6 | 11.3 | 0.00 | 0.03 | 0.03 | 85 | 1016.6 |
| 20260503053004 | 16 | 16 | 0.0 | 4.8 | 0.00 | 0.03 | 0.03 | 84 | 1016.8 |
| 20260503051503 | 16 | 351 | 0.0 | 0.0 | 0.00 | 0.03 | 0.03 | 85 | 1017.4 |
| 20260503044503 | 17 | 351 | 0.0 | 0.0 | 0.00 | 0.03 | 0.03 | 83 | 1017.2 |
| 20260503041504 | 17 | 355 | 0.0 | 0.0 | 0.00 | 0.03 | 0.03 | 82 | 1017.3 |
| 20260503040004 | 17 | 9 | 0.0 | 3.2 | 0.00 | 0.03 | 0.03 | 80 | 1017.2 |
| 20260503034504 | 17 | 5 | 0.0 | 3.2 | 0.00 | 0.03 | 0.03 | 80 | 1017.1 |
| 20260503033004 | 18 | 277 | 0.0 | 3.2 | 0.00 | 0.03 | 0.03 | 79 | 1017.2 |
| 20260503031504 | 18 | 277 | 0.0 | 1.6 | 0.00 | 0.03 | 0.03 | 77 | 1017.0 |
| 20260503024504 | 18 | 286 | 0.0 | 1.6 | 0.00 | 0.03 | 0.03 | 77 | 1016.6 |
| 20260503023003 | 19 | 282 | 0.0 | 0.0 | 0.00 | 0.03 | 0.03 | 77 | 1016.5 |
| 20260503020004 | 19 | 284 | 0.0 | 0.0 | 0.00 | 0.03 | 0.03 | 76 | 1015.8 |
| 20260503011504 | 20 | 264 | 0.0 | 0.0 | 0.00 | 0.03 | 0.03 | 76 | 1015.7 |
| 20260503010004 | 19 | 246 | 0.0 | 3.2 | 0.00 | 0.03 | 0.03 | 75 | 1015.7 |
| 20260503003004 | 19 | 238 | 1.6 | 11.3 | 0.00 | 0.03 | 0.03 | 72 | 1015.9 |
| 20260503000004 | 20 | 252 | 0.0 | 4.8 | 0.00 | 0.03 | 0.03 | 69 | 1015.8 |
| 20260502234504 | 20 | 211 | 3.2 | 14.5 | 0.00 | 0.03 | 0.03 | 68 | 1015.7 |
| 20260502231503 | 20 | 239 | 3.2 | 12.9 | 0.00 | 0.03 | 0.03 | 68 | 1016.0 |
| 20260502230004 | 20 | 249 | 1.6 | 11.3 | 0.00 | 0.03 | 0.03 | 68 | 1016.3 |
| 20260502224503 | 20 | 259 | 3.2 | 12.9 | 0.00 | 0.03 | 0.03 | 68 | 1016.6 |
| 20260502223004 | 19 | 257 | 0.0 | 11.3 | 0.00 | 0.03 | 0.03 | 68 | 1017.0 |
| 20260502221503 | 18 | 239 | 1.6 | 11.3 | 0.00 | 0.03 | 0.03 | 68 | 1017.1 |
| 20260502220003 | 19 | 198 | 0.0 | 14.5 | 0.00 | 0.03 | 0.03 | 69 | 1017.3 |
| 20260502214504 | 18 | 249 | 3.2 | 12.9 | 0.00 | 0.03 | 0.03 | 70 | 1017.5 |
| 20260502210004 | 17 | 252 | 4.8 | 16.1 | 0.00 | 0.03 | 0.03 | 71 | 1018.6 |
| 20260502204503 | 16 | 248 | 11.3 | 19.3 | 0.00 | 0.03 | 0.03 | 75 | 1018.7 |
| 20260502203004 | 16 | 268 | 8.0 | 19.3 | 0.00 | 0.03 | 0.03 | 72 | 1018.7 |
| 20260502201503 | 17 | 271 | 1.6 | 11.3 | 0.00 | 0.03 | 0.03 | 71 | 1019.1 |